Location: Arbon
(43.0005°N, 0.7472°E)
Time: 02:49:27
(UTC+00:00)

CZ-4B R/B - Pass Details

Date: 07 August 2020
Orbit: 702 x 803 km, 98.9° (Epoch: 27 September)

Event Time Altitude Azimuth Distance (km) Brightness Sun altitude
Rises 02:36:50 0° 8° (N) 3,122 7.6 -21.0°
Reaches altitude 10° 02:39:10 10° 3° (N) 2,190 6.6 -20.7°
Maximum altitude 02:43:45 48° 290° (WNW) 919 3.7 -20.1°
Enters shadow 02:44:50 40° 251° (WSW) 1,032 3.7 -20.0°
